Location: Unspecified
(0.0000°N, 0.0000°E)
Time: 09:26:49
(UTC+01:00)

Palapa 6 Rocket - Visible Passes

Search period start: 31 October 2014 00:00
Search period end: 10 November 2014 00:00
Orbit: 486 x 1234 km, 22.7° (Epoch: 30 October)

Date Brightness Start Highest point End Pass type
(mag) Time Alt. Az. Time Alt. Az. Time Alt. Az.
31 Oct 5.9 05:25:05 10° SSW 05:28:33 16° SSE 05:31:39 10° SE visible
31 Oct 4.2 19:57:02 10° WNW 20:03:51 90° SSW 20:09:06 23° ESE visible
31 Oct 5.8 21:46:49 10° W 21:51:12 31° WSW 21:51:12 31° WSW visible
01 Nov 5.8 05:12:24 10° SSW 05:16:42 19° SSE 05:20:28 10° ESE visible
01 Nov 4.3 19:45:08 10° WNW 19:51:42 80° SSW 19:58:32 14° ESE visible
01 Nov 5.7 21:35:03 10° W 21:40:38 33° SW 21:40:38 33° SW visible
02 Nov 5.6 04:59:46 10° SW 05:04:49 23° SSE 05:09:09 10° ESE visible
02 Nov 4.4 19:33:17 10° WNW 19:39:34 69° SSW 19:47:09 10° ESE visible
02 Nov 5.7 21:23:21 10° WSW 21:29:32 30° SSW 21:30:03 29° SSW visible
03 Nov 5.5 04:48:46 16° SSW 04:52:54 27° SSE 04:57:43 10° ESE visible
03 Nov 4.6 19:21:30 10° WNW 19:27:28 59° SSW 19:34:45 10° SE visible
03 Nov 5.9 21:11:44 10° WSW 21:17:28 26° SSW 21:19:24 24° S visible
04 Nov 5.3 04:37:57 23° SSW 04:40:56 33° SSE 04:46:12 10° E visible
04 Nov 4.8 19:09:46 10° W 19:15:24 50° SSW 19:22:19 10° SE visible
04 Nov 6.0 21:00:11 10° WSW 21:05:26 23° SSW 21:08:40 17° SSE visible
05 Nov 5.1 04:27:13 34° S 04:28:55 39° SSE 04:34:35 10° E visible
05 Nov 3.7 06:11:46 10° WSW 06:18:19 76° NNW 06:23:31 10° ENE visible
05 Nov 5.0 18:58:05 10° W 19:03:23 42° SSW 19:09:51 10° SE visible
05 Nov 6.2 20:48:43 10° WSW 20:53:26 20° SSW 20:57:50 12° SSE visible
06 Nov 4.8 04:16:33 45° SSE 04:16:50 45° SSE 04:22:54 10° E visible
06 Nov 3.8 05:59:30 10° WSW 06:06:15 65° NNW 06:11:39 10° ENE visible
06 Nov 6.3 20:37:21 10° SW 20:41:28 17° SSW 20:45:59 10° SSE visible
07 Nov 4.9 04:05:54 48° SE 04:05:54 48° SE 04:11:07 10° E visible
07 Nov 4.0 05:48:00 13° WSW 05:54:09 57° NNW 05:59:44 10° NE visible
07 Nov 6.4 20:26:07 10° SW 20:29:31 15° S 20:33:14 10° SSE visible
08 Nov 5.3 03:55:15 38° E 03:55:15 38° E 03:59:17 10° ENE visible
08 Nov 4.2 05:37:21 20° W 05:42:02 50° NNW 05:47:47 10° NE visible
08 Nov 6.4 20:15:04 10° SSW 20:17:37 13° S 20:20:20 10° SSE visible
09 Nov 5.8 03:44:33 27° E 03:44:33 27° E 03:47:22 10° ENE visible
09 Nov 4.4 05:26:39 28° WNW 05:29:52 44° NNW 05:35:46 10° NE visible
09 Nov 6.4 20:04:32 10° SSW 20:05:43 11° S 20:06:57 10° S visible
